This is the latest recevied weather packets stored in our database for station/object OK1TBM-13. If no packets are shown the sender has not sent any weather packets the latest 10 day(s).
| Time | Temp. | Humidity | Pressure | Rain* | Wind** | Luminosity | Snow |
|---|---|---|---|---|---|---|---|
| 1788071101 | 18.33° C | 76% | 1014.2 hPa | 0 mm | - | 166 W/m² | - |
| 1788070801 | 18.33° C | 77% | 1014.2 hPa | 0 mm | - | 132 W/m² | - |
| 1788070501 | 17.78° C | 78% | 1014.2 hPa | 0 mm | - | 103 W/m² | - |
| 1788070201 | 17.78° C | 79% | 1014.2 hPa | 0 mm | - | 88 W/m² | - |
| 1788069902 | 17.22° C | 81% | 1014.2 hPa | 0 mm | - | 74 W/m² | - |
| 1788069607 | 16.67° C | 84% | 1014.2 hPa | 0 mm | - | 66 W/m² | - |
| 1788069301 | 16.11° C | 86% | 1014.2 hPa | 0 mm | - | 59 W/m² | - |
| 1788069001 | 15.56° C | 89% | 1014.2 hPa | 0 mm | - | 54 W/m² | - |
| 1788068701 | 14.44° C | 90% | 1014.2 hPa | 0 mm | - | 49 W/m² | - |
| 1788068401 | 13.89° C | 93% | 1014.6 hPa | 0 mm | - | 41 W/m² | - |
| 1788068102 | 13.89° C | 92% | 1014.6 hPa | 0 mm | - | 40 W/m² | - |
| 1788067802 | 13.33° C | 96% | 1014.6 hPa | 0 mm | - | 40 W/m² | - |
| 1788067501 | 13.33° C | 98% | 1014.2 hPa | 0 mm | - | 41 W/m² | - |
| 1788067201 | 13.33° C | 98% | 1014.2 hPa | 0 mm | - | 38 W/m² | - |
| 1788066901 | 13.33° C | 99% | 1014.2 hPa | 0 mm | - | 36 W/m² | - |
| 1788066601 | 12.78° C | 98% | 1014.2 hPa | 0 mm | - | 34 W/m² | - |
| 1788066301 | 12.78° C | 99% | 1014.2 hPa | 0 mm | - | 34 W/m² | - |
| 1788066007 | 12.78° C | 99% | 1014.2 hPa | 0 mm | - | 33 W/m² | - |
| 1788065701 | 12.78° C | 99% | 1014.2 hPa | 0 mm | - | 32 W/m² | - |
| 1788065401 | 12.22° C | 99% | 1014.2 hPa | 0 mm | - | 32 W/m² | - |
| 1788065101 | 12.22° C | 99% | 1014.2 hPa | 0 mm | - | 26 W/m² | - |
| 1788064801 | 12.22° C | 99% | 1014.2 hPa | 1.27 mm | - | 20 W/m² | - |
| 1788064501 | 12.22° C | 99% | 1014.2 hPa | 1.27 mm | - | 15 W/m² | - |
| 1788064218 | 12.22° C | 99% | 1014.2 hPa | 0 mm | - | 12 W/m² | - |
| 1788063901 | 12.22° C | 99% | 1014.6 hPa | 0 mm | - | 9 W/m² | - |
* Rain latest hour (hover to see other rain measurements)
** Current wind speed in m/s (hover to see current wind gust speed)